sat.trackr.live / text

‹ back to catalog

STARLINK-1012

NORAD 44718 · 2019-074F

PAYLOAD ACTIVE UNKNOWN

§ Identity

Operator
Country
US
Launch date
2019-11-11
Launch site
AFETR
Launch vehicle
Mass (kg)
RCS (m²)

Purposes: comms

External: N2YO · Heavens-Above · Gunter

§ Orbital elements

Epoch: 2026-09-20T04:24:04.965120Z

Period
92.00 min
Inclination
53.1499°
Eccentricity
0.0004572
Mean motion
15.65297482 rev/d
Perigee alt
369.3 km
Apogee alt
375.5 km
Semi-major
6,750.5 km
B*
2.9897e-4
RAAN
328.7705°
Arg perigee
0.0769°
Mean anomaly
0.0247°
Rev number
37,901

§ Raw data

STARLINK-10121 44718U 19074F   26263.18339080  .00029833  00000+0  29897-3 0  99982 44718  53.1499 328.7705 0004572   0.0769   0.0247 15.65297482379011

JSON: /api/v1/satellites/44718 · /tle

For live sub-satellite position, see the globe view (requires WebGL).

§ Visibility from observer

Set your observer location to see the next 7 days of passes ≥ 10°. The values pass through the URL so the page stays shareable.

No JS? Fill the form by hand. The geolocation button needs JavaScript.